[[{"header":{"parameterUnit":"m.s-1","parameterCategory":1,"la1":30.2991,"la2":30.254,"lo1":-89.0895,"lo2":-89.0444,"dy":0.0017,"dx":0.0017,"nx":28,"ny":28,"refTime":"2025-07-06T09:00:00:Z","depth":0,"parameterNumber":2,"parameterNumberName":"U-component_of_WINDS"},"data":[0,0,0,0,0,0,0,0,0,0,0,0,0,0,0,0,0,0,0,0,0,0,0,0,0,0,0,0,0,0,0,0,0,0,0,0,0,0,0,0,0,0,0,0,0,0,0,0,0,0,0,0,0,0,0,0,0,0,2.6713,2.6714,0,2.6799,2.68,2.6801,2.6769,2.6767,2.6765,2.6763,2.6851,2.6855,2.6859,0,0,0,0,0,0,0,0,0,0,0,0,0,2.6518,2.6522,2.6713,2.6714,2.6715,2.6799,2.68,2.6801,2.6769,2.6767,2.6765,2.6762,2.6849,2.6854,2.6859,0,0,0,0,0,0,0,0,0,0,0,0,0,2.6603,2.6523,2.6713,2.6709,2.671,2.6799,2.68,2.6802,2.677,2.6767,2.6764,2.6761,2.6848,2.6854,2.686,2.6957,0,0,2.6879,2.6881,0,0,0,0,0,0,0,0,2.6599,2.6611,2.6709,2.671,2.671,2.677,2.6764,2.6854,2.6771,2.6747,2.6763,2.676,2.6826,2.6834,2.6857,2.6961,2.6965,2.6879,2.6883,2.6886,2.6888,0,0,0,0,0,0,0,2.6593,2.6607,2.6747,2.671,2.6711,2.6703,2.6711,2.6781,2.6802,2.6749,2.6747,2.6757,2.6826,2.6851,2.6858,2.6966,2.6879,2.6885,2.6889,2.6891,2.7153,2.7156,0,0,0,0,0,0,2.6587,2.6602,2.6744,2.675,2.6646,2.6709,2.6718,2.6754,2.6801,2.6806,2.676,2.6756,2.6841,2.6851,2.6861,2.6977,2.6886,2.6892,2.6895,2.715,2.7153,2.7157,0,0,0,0,0,0,2.6583,2.66,2.6741,2.6675,2.6693,2.6715,2.6755,2.6757,2.6782,2.681,2.6813,2.6781,2.684,2.6853,2.6933,2.6979,2.6894,2.69,2.7146,2.7151,2.7155,2.7209,0,0,0,0,0,0,2.6577,2.6599,2.6636,2.6676,2.6696,2.6812,2.6758,2.6761,2.6793,2.6788,2.683,2.6835,2.6838,2.6924,2.6939,2.6986,2.6905,2.7142,2.7148,2.7154,2.7203,2.7215,2.7225,0,0,0,0,0,2.657,2.6648,2.6638,2.6656,2.6744,2.6815,2.6826,2.6829,2.6797,2.6834,2.6852,2.6833,2.6972,2.6933,2.6949,2.6999,2.7139,2.7146,2.7153,2.7198,2.7213,2.7225,0,0,0,0,0,0,2.6613,2.6653,2.6643,2.6736,2.6772,2.6809,2.6857,2.6844,2.689,2.6884,2.6885,2.6895,2.6977,2.6996,2.6952,2.7095,2.705,2.7061,2.7079,2.7093,2.7104,2.7097,2.691,0,0,0,0,0,2.6633,2.6688,2.672,2.6799,2.6818,2.6834,2.6865,2.6864,2.6901,2.6916,2.694,2.6976,2.7028,2.7062,2.7111,2.7206,2.7214,2.7249,2.726,2.7269,2.7278,2.7327,2.7343,2.7181,2.7181,2.718,0,0,2.6675,2.6704,2.6738,2.6808,2.6836,2.6891,2.6847,2.6908,2.6949,2.6926,2.7002,2.7021,2.7062,2.7149,2.7189,2.7168,2.7324,2.7278,2.7285,2.7289,2.7336,2.7352,2.7365,2.7186,2.7185,2.7184,0,0,2.678,2.6808,2.6876,2.6905,2.6948,2.6958,2.6974,2.7013,2.7024,2.7102,2.7085,2.7133,2.7223,2.7252,2.7278,2.7393,2.7377,2.7409,2.7466,2.7515,2.7527,2.7539,2.7578,2.7592,2.7418,2.7419,2.7419,0,2.6826,2.691,2.6913,2.6975,2.7005,2.6987,2.7055,2.7083,2.7139,2.716,2.7136,2.7246,2.7272,2.7366,2.7394,2.7416,2.7434,2.7404,2.7526,2.7537,2.7547,2.7585,2.7599,2.7422,2.7422,2.7421,2.7421,0,2.6964,2.7023,2.7072,2.7127,2.7163,2.7228,2.724,2.7276,2.7272,2.7285,2.7363,2.7394,2.7448,2.747,2.7467,2.7563,2.7548,2.7525,2.748,2.7566,2.7601,2.7616,2.7427,2.7426,2.7425,2.7424,0,0,2.7097,2.7153,2.7171,2.7195,2.724,2.7285,2.7348,2.7401,2.7432,2.7471,2.7523,2.7599,2.7577,2.7607,2.7607,2.765,2.7737,2.7621,2.7622,2.764,2.7842,2.7857,2.7874,2.7727,2.773,2.7732,2.7837,0,2.7204,2.7316,2.732,2.7421,2.7474,2.7457,2.7512,2.7546,2.7559,2.7605,2.762,2.7672,2.7641,2.7659,2.7701,2.7717,2.7777,2.771,2.7774,2.7776,2.7762,2.7892,2.791,2.8008,2.7851,2.7854,2.7855,0,2.7343,2.7387,2.7494,2.7531,2.7553,2.7602,2.7651,2.7696,2.7732,2.7739,2.7772,2.7766,2.7829,2.7784,2.787,2.7824,2.7851,2.7863,2.7867,2.7871,2.782,2.7899,2.8039,2.8053,2.7877,2.7876,2.7874,0,2.7426,2.7513,2.7587,2.7609,2.7654,2.7689,2.7709,2.7743,2.7775,2.7817,2.7837,2.7886,2.7912,2.795,2.7956,2.7923,2.8042,2.7998,2.8048,2.8048,2.8072,2.807,2.8217,2.8093,2.8093,2.8092,2.8092,0,2.7544,2.7609,2.7625,2.7671,2.7743,2.7747,2.7818,2.7836,2.7866,2.7914,2.7903,2.7948,2.7955,2.8001,2.8006,2.8076,2.8089,2.8094,2.8095,2.8094,2.8093,2.811,2.8103,2.8096,2.8095,2.8095,2.8094,0,2.7649,2.7662,2.7742,2.7778,2.7789,2.7841,2.7871,2.7914,2.7927,2.7987,2.8002,2.8021,2.8075,2.8085,2.8149,2.8152,2.8234,2.8229,2.8222,2.822,2.8269,2.8264,2.8431,2.8452,2.8316,2.8317,2.8318,0,2.7722,2.7772,2.7814,2.7845,2.7867,2.7918,2.795,2.7956,2.7989,2.8034,2.8072,2.8124,2.8167,2.8253,2.8272,2.832,2.8314,2.837,2.8321,2.8319,2.8312,2.8308,2.8312,2.8378,2.838,2.8381,2.8382,0,2.7849,2.7853,2.79,2.7949,2.7987,2.8026,2.8062,2.8089,2.8099,2.8137,2.8192,2.8224,2.8289,2.8341,2.8389,2.8409,2.8396,2.8397,2.8411,2.841,2.8403,2.8405,2.8245,2.8393,2.8392,2.8391,2.839,2.839,2.7938,2.7981,2.8017,2.8069,2.8098,2.8132,2.8174,2.8191,2.8238,2.8291,2.8292,2.8351,2.8385,2.8449,2.8472,2.8517,2.85,2.852,2.8525,2.8529,2.8533,2.8397,2.8526,2.8526,2.8526,2.8526,2.8525,0,2.8063,2.8086,2.8134,2.8185,2.8226,2.8212,2.8252,2.8286,2.8339,2.8373,2.8414,2.8477,2.8527,2.8549,2.8598,2.863,2.8626,2.8643,2.8639,2.8644,2.8547,2.8529,2.8646,2.8646,2.8646,2.8646,2.8646,2.8645,2.8133,2.8204,2.8212,2.8297,2.8319,2.8378,2.8401,2.8432,2.8459,2.8529,2.8571,2.8586,2.8615,2.8665,2.871,2.8715,2.8733,2.8752,2.8754,2.8663,2.8651,2.8639,2.8622,2.8756,2.8756,2.8847,2.8848,2.8848]},{"header":{"parameterUnit":"m.s-1","parameterCategory":1,"la1":30.2991,"la2":30.254,"lo1":-89.0895,"lo2":-89.0444,"dy":0.0017,"dx":0.0017,"nx":28,"ny":28,"refTime":"2025-07-06T09:00:00:Z","depth":0,"parameterNumber":3,"parameterNumberName":"V-component_of_WINDS"},"data":[0,0,0,0,0,0,0,0,0,0,0,0,0,0,0,0,0,0,0,0,0,0,0,0,0,0,0,0,0,0,0,0,0,0,0,0,0,0,0,0,0,0,0,0,0,0,0,0,0,0,0,0,0,0,0,0,0,0,4.6527,4.6529,0,4.6741,4.6743,4.6745,4.6836,4.6835,4.6835,4.6835,4.7045,4.705,4.7056,0,0,0,0,0,0,0,0,0,0,0,0,0,4.619,4.6196,4.6527,4.653,4.6532,4.674,4.6743,4.6746,4.6836,4.6835,4.6835,4.6834,4.7043,4.705,4.7057,0,0,0,0,0,0,0,0,0,0,0,0,0,4.6363,4.6198,4.6526,4.6602,4.6611,4.674,4.6743,4.6747,4.6836,4.6835,4.6835,4.6834,4.704,4.7049,4.7058,4.7124,0,0,4.7085,4.7089,0,0,0,0,0,0,0,0,4.6353,4.6375,4.6589,4.6597,4.6608,4.6761,4.6702,4.6873,4.6836,4.675,4.6835,4.6834,4.695,4.6966,4.7007,4.7134,4.7143,4.7086,4.7091,4.7095,4.7098,0,0,0,0,0,0,0,4.6341,4.6366,4.6611,4.6591,4.6603,4.6623,4.6647,4.6734,4.685,4.6758,4.6765,4.6789,4.6955,4.6999,4.7013,4.7146,4.7086,4.7093,4.7099,4.7102,4.7339,4.734,0,0,0,0,0,0,4.6317,4.6356,4.6604,4.6618,4.6477,4.663,4.6657,4.6712,4.685,4.687,4.679,4.6793,4.6984,4.7003,4.7021,4.7109,4.7095,4.7103,4.7108,4.7338,4.7339,4.734,0,0,0,0,0,0,4.631,4.6339,4.6596,4.6489,4.6523,4.6637,4.6698,4.6717,4.6761,4.6874,4.6894,4.6813,4.6984,4.7008,4.7099,4.7117,4.7107,4.7115,4.7337,4.7338,4.7339,4.7284,0,0,0,0,0,0,4.63,4.6336,4.6363,4.6489,4.6529,4.6672,4.6699,4.6721,4.6777,4.6783,4.6902,4.6921,4.6985,4.7085,4.7107,4.7129,4.7122,4.7335,4.7337,4.7339,4.7284,4.7283,4.7282,0,0,0,0,0,4.6288,4.6337,4.6364,4.6394,4.6566,4.6673,4.6695,4.6772,4.6778,4.6806,4.6879,4.6917,4.7111,4.7093,4.712,4.7144,4.7335,4.7337,4.7339,4.7285,4.7283,4.7282,0,0,0,0,0,0,4.6207,4.6355,4.6387,4.6479,4.6563,4.6688,4.6726,4.6767,4.6849,4.6851,4.6939,4.6965,4.7048,4.7105,4.7082,4.7216,4.7226,4.7233,4.7176,4.7176,4.7174,4.7159,4.713,0,0,0,0,0,4.6201,4.6278,4.6401,4.6471,4.6512,4.6611,4.666,4.6712,4.6802,4.6837,4.6917,4.7,4.708,4.7131,4.7211,4.7293,4.732,4.7323,4.7322,4.732,4.7325,4.7374,4.7377,4.7347,4.7347,4.7347,0,0,4.6187,4.6277,4.632,4.6457,4.6528,4.6604,4.664,4.6718,4.6775,4.6848,4.694,4.7001,4.7099,4.7187,4.7229,4.7237,4.734,4.7323,4.7321,4.7327,4.7377,4.7379,4.7382,4.7348,4.7348,4.7348,0,0,4.6202,4.6278,4.6345,4.6416,4.6525,4.6592,4.6607,4.6727,4.6772,4.6865,4.6922,4.6989,4.7125,4.7194,4.7247,4.7289,4.7327,4.7312,4.7305,4.7352,4.7354,4.7357,4.7372,4.7376,4.7317,4.7317,4.7317,0,4.617,4.6289,4.6373,4.645,4.6508,4.6581,4.6648,4.6712,4.684,4.6878,4.6886,4.706,4.7131,4.7236,4.7246,4.7286,4.7306,4.7299,4.7347,4.7351,4.7354,4.737,4.7376,4.7314,4.7315,4.7315,4.7315,0,4.6246,4.6327,4.6368,4.6494,4.6556,4.6627,4.672,4.6773,4.682,4.6884,4.6979,4.7068,4.7168,4.7196,4.724,4.7307,4.7309,4.7331,4.7342,4.7353,4.737,4.7376,4.7311,4.7312,4.7312,4.7313,0,0,4.6215,4.6388,4.6401,4.646,4.6586,4.6649,4.6723,4.6824,4.6868,4.6954,4.7018,4.7133,4.7155,4.7214,4.7267,4.7307,4.7336,4.7325,4.7328,4.7324,4.7416,4.7399,4.7404,4.7362,4.7364,4.7365,4.7408,0,4.6247,4.6386,4.6464,4.657,4.6646,4.6717,4.6782,4.6865,4.6928,4.7,4.7068,4.7148,4.717,4.7207,4.7251,4.7323,4.7356,4.7321,4.7421,4.7424,4.7395,4.7413,4.7395,4.7431,4.7414,4.7416,4.7416,0,4.6302,4.6391,4.6505,4.6625,4.6659,4.6716,4.6816,4.6885,4.698,4.7023,4.709,4.7144,4.7223,4.7229,4.7339,4.7314,4.7359,4.7401,4.7404,4.7416,4.7421,4.7426,4.7444,4.745,4.7427,4.7426,4.7426,0,4.6269,4.6416,4.6505,4.6552,4.6693,4.6732,4.6792,4.6887,4.6943,4.7029,4.7066,4.7159,4.7209,4.7279,4.7355,4.7352,4.7458,4.747,4.7494,4.7492,4.7513,4.7511,4.7539,4.7542,4.7542,4.7541,4.7541,0,4.6297,4.6364,4.6492,4.6546,4.6623,4.6711,4.6785,4.685,4.6934,4.7001,4.7066,4.7127,4.7224,4.7297,4.7356,4.7439,4.746,4.7496,4.7511,4.7491,4.7486,4.7521,4.7521,4.7543,4.7543,4.7542,4.7542,0,4.6273,4.6361,4.6462,4.6588,4.6622,4.6673,4.678,4.6834,4.6901,4.6985,4.7009,4.7113,4.7201,4.7285,4.7402,4.7442,4.7525,4.7544,4.7494,4.7502,4.7522,4.7519,4.7575,4.7587,4.758,4.758,4.758,0,4.6285,4.6339,4.6472,4.6523,4.6583,4.6663,4.6722,4.681,4.6868,4.6982,4.7022,4.7117,4.7197,4.7334,4.7419,4.7509,4.7531,4.7544,4.7545,4.7523,4.7532,4.7528,4.7534,4.7542,4.7542,4.7542,4.7541,0,4.6297,4.6339,4.6422,4.6522,4.6591,4.6672,4.6755,4.6792,4.6896,4.6958,4.7051,4.7113,4.7235,4.7327,4.7427,4.7487,4.7531,4.7541,4.7552,4.7531,4.75,4.7517,4.749,4.7539,4.7539,4.7539,4.754,4.754,4.6292,4.6344,4.6447,4.6538,4.661,4.6687,4.6745,4.682,4.6901,4.7009,4.7055,4.7149,4.7244,4.7384,4.7443,4.7516,4.7526,4.7541,4.7545,4.7547,4.7543,4.7488,4.7534,4.7535,4.7535,4.7535,4.7535,0,4.6309,4.6379,4.6462,4.6578,4.6649,4.6688,4.6783,4.6839,4.6922,4.7008,4.7086,4.7193,4.7283,4.7376,4.7471,4.7512,4.7535,4.7534,4.7531,4.7545,4.7529,4.7511,4.7514,4.7514,4.7514,4.7514,4.7514,4.7514,4.6326,4.6416,4.647,4.6596,4.6665,4.6761,4.6811,4.6882,4.6951,4.7069,4.7146,4.7206,4.7295,4.7397,4.7481,4.7506,4.7537,4.7531,4.7561,4.7544,4.7545,4.7546,4.753,4.7537,4.7537,4.7571,4.7571,4.7571]}]]